DW5678 Kavala GR current weather conditions

sailwx.info

Wind from 103 at 0 knots gusting 2

Air temperature 10.6° C
Dewpoint 7.6° C

Last reported at 2015-Apr-21 01:45 UTC.
Time now 2015-Apr-21 03:03 UTC

Location: N 40°56' E 024°24'.
View on Google Maps.

See reports from other nearby stations

  
Tides and Currents Weather Stations Pressure Air Temp Water Temp Dewpoint Dewpoint Depression Visibility Wind Speed Wind Dir Waves Ship Positions
date/time (UTC)wind fromknots sea level pressurealtimeterstation pressurevisibilityair tempwater tempwave heightnotes
2015-Apr-21 01:45 103 0 gusting 2 10.6
2015-Apr-21 01:30 315 0 gusting 2 10.0
2015-Apr-21 01:15 250 2 gusting 6 10.0
2015-Apr-21 01:00 005 10.0
2015-Apr-21 00:45 005 10.0
2015-Apr-21 00:30 005 10.0
2015-Apr-21 00:15 005 10.0
2015-Apr-21 00:00 011 10.0
2015-Apr-20 23:45 011 10.6
2015-Apr-20 23:30 011 10.6
2015-Apr-20 23:15 011 10.6
2015-Apr-20 23:00 011 10.6
2015-Apr-20 22:45 011 10.6
2015-Apr-20 22:30 012 11.1
2015-Apr-20 22:15 012 11.1
2015-Apr-20 22:00 012 11.1
2015-Apr-20 21:45 012 11.1
2015-Apr-20 21:30 012 11.1
2015-Apr-20 21:15 012 11.1
2015-Apr-20 21:00 012 11.7
2015-Apr-20 20:45 005 11.7
2015-Apr-20 20:30 010 11.7
2015-Apr-20 20:15 005 11.7
2015-Apr-20 20:00 005 11.7
2015-Apr-20 19:45 005 0 gusting 2 11.7
2015-Apr-20 19:30 014 0 gusting 2 11.7
2015-Apr-20 19:15 355 0 gusting 2 11.7
2015-Apr-20 19:00 357 0 gusting 2 11.7
2015-Apr-20 18:45 045 0 gusting 2 11.7
2015-Apr-20 18:30 025 11.7
2015-Apr-20 18:15 018 0 gusting 4 11.7
2015-Apr-20 18:00 033 0 gusting 1 11.7
2015-Apr-20 17:45 016 12.2
2015-Apr-20 17:30 018 12.2
2015-Apr-20 17:15 355 12.8
2015-Apr-20 17:00 159 12.8
2015-Apr-20 16:45 159 12.8
2015-Apr-20 16:30 178 12.8
2015-Apr-20 16:15 206 13.3
2015-Apr-20 16:00 131 13.3
2015-Apr-20 15:45 214 1 gusting 6 13.3
2015-Apr-20 15:30 200 2 gusting 6 13.3
2015-Apr-20 15:15 213 2 gusting 7 13.3
2015-Apr-20 15:00 209 2 gusting 6 13.9
2015-Apr-20 14:45 202 3 gusting 7 13.9
2015-Apr-20 14:30 188 3 gusting 7 13.9
2015-Apr-20 14:15 215 3 gusting 6 13.3
2015-Apr-20 14:00 195 1 gusting 8 13.9
2015-Apr-20 13:45 211 3 gusting 10 13.3
2015-Apr-20 13:30 242 4 gusting 7 13.9
2015-Apr-20 13:15 192 5 gusting 8 13.3
2015-Apr-20 13:00 215 4 gusting 8 13.3
2015-Apr-20 12:45 216 5 gusting 11 13.3
2015-Apr-20 12:30 207 2 gusting 8 13.3
2015-Apr-20 12:15 155 2 gusting 10 13.9
2015-Apr-20 12:00 203 4 gusting 10 13.3
2015-Apr-20 11:45 204 3 gusting 8 13.9
2015-Apr-20 11:30 214 4 gusting 8 13.9
2015-Apr-20 11:15 215 4 gusting 7 13.9
2015-Apr-20 11:00 216 4 gusting 7 13.9
2015-Apr-20 10:45 202 4 gusting 8 13.9
2015-Apr-20 10:30 223 4 gusting 10 13.3
2015-Apr-20 10:15 230 6 gusting 8 12.8
2015-Apr-20 10:00 202 4 gusting 6 12.2
2015-Apr-20 09:45 249 1 gusting 5 12.8
2015-Apr-20 09:30 213 1 gusting 5 13.3
2015-Apr-20 09:15 189 1 gusting 6 13.3
2015-Apr-20 09:00 187 2 gusting 6 13.3
2015-Apr-20 08:45 213 0 gusting 5 12.8
2015-Apr-20 08:30 184 2 gusting 6 12.8
2015-Apr-20 08:15 231 1 gusting 6 12.2
2015-Apr-20 08:00 153 0 gusting 4 11.7
2015-Apr-20 07:45 288 1 gusting 6 11.7
2015-Apr-20 07:30 194 1 gusting 6 11.1
2015-Apr-20 07:15 299 2 gusting 6 11.1
2015-Apr-20 07:00 271 0 gusting 4 11.1
2015-Apr-20 06:45 200 0 gusting 5 11.7
2015-Apr-20 06:30 183 1 gusting 2 11.1
2015-Apr-20 06:15 199 0 gusting 2 11.1
2015-Apr-20 06:00 217 0 gusting 2 10.6
2015-Apr-20 05:45 195 10.6
2015-Apr-20 05:30 332 10.0
2015-Apr-20 05:15 005 9.4
2015-Apr-20 05:00 005 8.9
2015-Apr-20 04:45 005 8.3
2015-Apr-20 04:30 005 8.3
2015-Apr-20 04:15 018 7.8
2015-Apr-20 04:00 018 7.8
2015-Apr-20 03:45 027 7.8
2015-Apr-20 03:30 042 7.8
2015-Apr-20 03:15 017 7.8
2015-Apr-20 03:00 017 7.8
2015-Apr-20 02:45 017 7.8
2015-Apr-20 02:30 017 7.8
2015-Apr-20 02:15 017 7.8
2015-Apr-20 02:00 017 7.8
2015-Apr-20 01:45 017 7.8
2015-Apr-20 01:30 017 8.3
2015-Apr-20 01:15 017 8.3
2015-Apr-20 01:00 017 8.3
2015-Apr-20 00:45 017 8.3
2015-Apr-20 00:30 017 8.3
2015-Apr-20 00:15 013 8.3
2015-Apr-20 00:00 013 8.3
2015-Apr-19 23:45 031 1 gusting 2 8.3
2015-Apr-19 23:30 032 0 gusting 2 8.3
2015-Apr-19 23:15 012 0 gusting 2 8.3
2015-Apr-19 23:00 299 0 gusting 2 8.3
2015-Apr-19 22:45 018 0 gusting 4 8.3
2015-Apr-19 22:30 038 0 gusting 4 8.3
2015-Apr-19 22:15 033 0 gusting 4 8.3
2015-Apr-19 22:00 034 1 gusting 4 8.3
2015-Apr-19 21:45 015 8.3
2015-Apr-19 21:30 031 0 gusting 6 7.8
2015-Apr-19 21:15 053 1 gusting 5 7.8
2015-Apr-19 21:00 017 3 gusting 6 7.8
2015-Apr-19 20:45 057 2 gusting 6 7.8
2015-Apr-19 20:30 057 3 gusting 6 7.8
2015-Apr-19 20:15 043 1 gusting 5 7.8
2015-Apr-19 20:00 048 1 gusting 5 7.8
2015-Apr-19 19:45 056 2 gusting 6 7.8
2015-Apr-19 19:30 037 1 gusting 6 7.8
2015-Apr-19 19:15 032 1 gusting 5 7.8
2015-Apr-19 19:00 030 2 gusting 6 7.8
2015-Apr-19 18:45 039 2 gusting 4 7.8
2015-Apr-19 18:30 348 0 gusting 6 7.8
2015-Apr-19 18:15 026 1 gusting 6 7.8
2015-Apr-19 18:00 034 1 gusting 6 7.8
2015-Apr-19 17:45 061 1 gusting 6 7.8
2015-Apr-19 17:30 066 2 gusting 7 7.8
2015-Apr-19 17:15 038 3 gusting 8 8.3
2015-Apr-19 17:00 050 2 gusting 7 8.3
2015-Apr-19 16:45 022 2 gusting 7 8.3
2015-Apr-19 16:30 061 2 gusting 10 8.9
2015-Apr-19 16:15 092 2 gusting 6 8.9
2015-Apr-19 16:00 062 3 gusting 8 8.9
2015-Apr-19 15:45 028 4 gusting 10 8.9
2015-Apr-19 15:30 066 2 gusting 6 9.4
2015-Apr-19 15:15 074 3 gusting 8 9.4
2015-Apr-19 15:00 076 1 gusting 6 10.0
2015-Apr-19 14:45 055 0 gusting 5 10.0
2015-Apr-19 14:30 078 10.0
2015-Apr-19 14:15 036 2 gusting 10 10.0
2015-Apr-19 14:00 048 1 gusting 6 10.6
2015-Apr-19 13:45 067 2 gusting 6 10.6
2015-Apr-19 13:30 029 2 gusting 8 10.6
2015-Apr-19 13:15 025 1 gusting 7 10.6
2015-Apr-19 13:00 073 2 gusting 10 10.6
2015-Apr-19 12:45 082 0 gusting 7 11.1
2015-Apr-19 12:30 018 4 gusting 8 11.1
2015-Apr-19 12:15 063 2 gusting 6 11.7
2015-Apr-19 12:00 037 12.2
2015-Apr-19 11:45 105 1 gusting 6 12.2
2015-Apr-19 11:30 058 0 gusting 7 12.2
2015-Apr-19 11:15 146 0 gusting 6 12.8
2015-Apr-19 11:00 084 2 gusting 6 13.3
2015-Apr-19 10:45 002 0 gusting 4 13.3
2015-Apr-19 10:30 063 0 gusting 4 13.9
2015-Apr-19 10:15 171 1 gusting 10 13.9
2015-Apr-19 10:00 075 1 gusting 10 14.4
2015-Apr-19 09:45 134 2 gusting 8 14.4
2015-Apr-19 09:30 168 1 gusting 8 14.4
2015-Apr-19 09:15 059 1 gusting 8 14.4
2015-Apr-19 09:00 110 1 gusting 7 15.0
2015-Apr-19 08:45 148 2 gusting 6 15.0
2015-Apr-19 08:30 115 1 gusting 5 15.0
2015-Apr-19 08:15 126 0 gusting 4 15.0
2015-Apr-19 08:00 124 0 gusting 2 15.0
2015-Apr-19 07:45 137 0 gusting 2 15.0
2015-Apr-19 07:30 148 15.6
2015-Apr-19 07:15 195 0 gusting 2 16.1
2015-Apr-19 07:00 221 15.0
2015-Apr-19 06:45 213 15.0
2015-Apr-19 06:30 200 0 gusting 2 14.4
2015-Apr-19 06:15 227 14.4
2015-Apr-19 06:00 247 0 gusting 4 13.9
2015-Apr-19 05:45 259 1 gusting 6 13.9
2015-Apr-19 05:30 259 13.9
2015-Apr-19 05:15 260 1 gusting 4 15.0
2015-Apr-19 05:00 252 15.0
2015-Apr-19 04:45 013 15.0
2015-Apr-19 04:30 013 14.4
2015-Apr-19 04:15 013 14.4
2015-Apr-19 04:00 013 14.4
2015-Apr-19 03:45 013 14.4
2015-Apr-19 03:30 028 0 gusting 2 14.4
2015-Apr-19 03:15 032 14.4
2015-Apr-19 03:00 14.4